Date,TemperatureHighF,TemperatureAvgF,TemperatureLowF,DewpointHighF,DewpointAvgF,DewpointLowF,HumidityHigh,HumidityAvg,HumidityLow,PressureMaxIn,PressureMinIn,WindSpeedMaxMPH,WindSpeedAvgMPH,GustSpeedMaxMPH,PrecipitationSumIn
2012-1-1,34.8,26.8,21.8,23.2,18.5,13.6,92,71,53,30.65,30.31,14,1,14,0.00
2012-1-2,50.7,33.7,19.8,28.8,24.2,18.5,95,71,37,30.66,30.29,10,0,10,0.00
2012-1-3,53.6,39.5,31.8,31.7,24.1,-41.0,80,57,30,30.45,30.13,12,0,143,0.00
2012-1-4,56.9,39.1,27.0,28.5,24.0,-13.3,84,59,24,30.44,30.31,10,1,128,2.56
2012-1-5,62.9,44.9,35.5,31.2,28.0,24.5,69,54,23,30.33,29.94,64,0,132,0.00
2012-1-6,128.7,37.4,29.0,32.4,27.9,-17.4,89,69,51,30.16,24.21,64,1,131,0.08
2012-1-7,40.1,30.9,25.7,34.2,28.6,-0.9,100,92,64,30.17,29.81,10,0,10,0.10
2012-1-8,38.1,26.7,18.2,31.8,23.3,17.5,99,88,56,30.24,30.13,9,0,9,2.30
2012-1-9,47.3,32.3,21.3,31.9,26.6,19.1,93,81,51,30.31,30.16,8,0,9,2.30
2012-1-10,56.0,38.4,27.6,32.8,29.2,24.4,95,74,30,30.16,29.81,11,1,12,2.30
2012-1-11,35.7,18.9,9.8,31.2,16.5,7.9,94,91,72,30.20,29.81,15,0,21,0.08
2012-1-12,42.5,23.4,8.5,23.5,14.4,6.3,96,71,32,30.14,30.00,11,0,11,0.00
2012-1-13,140.2,34.7,23.6,19.8,16.0,12.1,79,49,27,30.15,30.00,17,1,18,0.00
2012-1-14,54.4,38.1,24.0,28.6,21.0,15.1,77,52,30,30.19,29.95,9,0,10,0.00
2012-1-15,53.9,39.2,28.3,27.1,23.5,21.1,81,56,30,29.95,29.70,10,0,12,0.00
2012-1-16,38.8,28.3,19.1,30.3,23.6,18.4,99,84,47,30.04,29.59,19,1,20,0.02
2012-1-17,30.2,21.2,13.3,18.8,14.8,11.7,97,78,48,30.17,30.00,13,0,13,0.00
2012-1-18,47.8,35.5,17.4,26.5,21.1,11.9,86,57,36,30.02,29.73,20,1,20,0.00
2012-1-19,62.9,51.7,40.2,33.9,30.5,25.1,62,45,32,29.81,29.60,31,2,33,0.00
2012-1-20,146.8,45.8,38.2,30.6,28.4,-45.6,69,52,34,30.00,24.23,64,1,134,0.02
2012-1-21,62.6,46.0,32.7,37.5,31.0,22.5,77,58,31,29.91,29.26,16,1,17,0.00
2012-1-22,45.9,39.6,29.9,37.5,19.4,9.2,83,46,27,29.89,29.27,29,2,29,0.00
2012-1-23,50.6,36.8,26.6,25.9,20.9,13.2,74,55,31,29.91,29.79,18,0,18,0.00
2012-1-24,36.7,32.3,24.7,35.1,28.8,24.2,100,87,67,30.27,29.79,12,0,12,0.06
2012-1-25,59.4,41.0,23.2,34.0,24.7,20.5,100,60,22,30.21,29.97,24,4,24,0.00
2012-1-26,56.5,47.0,40.1,31.5,24.2,18.9,62,42,23,30.16,29.76,19,2,23,0.00
2012-1-27,44.7,32.0,22.3,31.8,24.1,4.5,98,75,43,30.36,29.48,15,1,64,0.04
2012-1-28,45.5,32.3,19.2,22.4,15.6,10.0,93,56,24,30.33,30.18,19,1,20,0.92
2012-1-29,54.9,41.6,28.2,26.8,22.7,16.3,72,49,32,30.25,30.06,19,1,20,0.92
2012-1-30,58.4,44.2,33.7,26.5,22.7,18.1,65,45,24,30.06,29.80,13,1,14,0.92
2012-1-31,52.9,41.7,33.4,25.6,22.5,17.9,71,48,25,30.12,29.92,17,1,17,0.92
2012-2-1,133.6,39.3,28.5,25.2,21.4,-5.8,79,52,22,30.20,29.48,11,0,127,5.12
2012-2-2,44.8,36.1,31.4,32.3,25.0,19.2,100,68,37,30.08,29.91,22,1,22,0.05
2012-2-3,31.4,28.6,27.0,31.4,28.5,27.0,100,100,99,30.40,30.08,16,1,17,0.27
2012-2-4,40.4,27.9,19.9,32.2,25.6,18.0,100,92,65,30.48,30.39,8,0,9,0.01
2012-2-5,38.9,23.4,13.3,27.9,20.1,12.1,97,88,60,30.44,30.19,9,0,9,8.51
2012-2-6,37.9,27.1,15.5,28.5,22.3,15.0,100,84,53,30.32,30.09,14,1,16,4.44
2012-2-7,31.6,25.8,22.4,26.8,23.7,21.0,100,92,77,30.42,30.26,7,0,9,0.04
2012-2-8,37.0,26.0,15.6,27.2,22.4,15.0,98,87,64,30.26,30.08,6,0,7,0.00
2012-2-9,44.9,31.5,24.3,33.4,27.3,22.9,97,85,54,30.23,30.08,13,0,14,0.00
2012-2-10,41.9,27.1,19.9,28.8,23.8,18.4,100,88,48,30.27,30.11,14,1,14,0.00
2012-2-11,24.0,17.3,11.7,22.4,15.5,11.4,100,93,80,30.36,30.10,14,1,14,0.01
2012-2-12,30.1,21.8,13.1,24.3,19.3,11.6,99,90,72,30.10,29.63,10,0,10,0.49
2012-2-13,43.8,32.3,23.7,34.1,28.7,23.4,100,88,62,29.80,29.61,10,0,11,0.00
2012-2-14,48.2,32.6,21.2,33.0,27.6,21.1,100,84,47,29.82,29.63,11,0,12,0.00
2012-2-15,39.2,30.5,23.8,32.6,28.0,23.5,100,91,71,30.14,29.81,9,0,9,0.00
2012-2-16,47.7,32.7,21.1,30.8,25.7,-14.4,99,78,39,30.20,30.06,12,0,130,0.00
2012-2-17,44.8,32.1,22.6,28.3,23.2,-8.6,92,72,40,30.21,30.02,12,0,127,0.00
2012-2-18,47.0,32.1,19.6,31.8,25.6,19.0,99,80,37,30.17,29.87,9,0,9,0.00
2012-2-19,46.9,34.3,25.5,31.7,28.3,23.2,99,81,45,29.87,29.54,11,0,11,0.00
2012-2-20,41.1,34.0,28.6,31.9,19.9,11.4,100,60,31,29.90,29.61,20,1,22,0.00
2012-2-21,137.1,40.5,28.3,28.5,21.1,-8.1,64,46,34,29.90,29.49,20,1,128,0.00
2012-2-22,59.5,49.8,36.0,32.5,28.8,25.3,82,47,29,29.77,29.42,28,2,35,0.00
2012-2-23,50.7,32.1,22.5,37.5,26.9,16.9,100,83,44,30.08,29.44,26,0,35,0.19
2012-2-24,42.5,29.0,15.9,22.0,17.4,12.4,91,65,36,30.19,29.96,23,1,25,1.90
2012-2-25,61.6,40.2,20.5,27.3,19.5,11.4,94,52,16,30.12,29.55,24,3,26,0.00
2012-2-26,42.7,33.3,24.4,23.4,13.7,-25.1,87,49,10,30.20,24.55,24,1,64,0.00
2012-2-27,47.3,31.8,20.5,29.9,19.5,13.1,83,63,38,30.20,29.78,35,5,37,0.01
2012-2-28,46.7,38.1,29.0,37.6,27.5,17.0,93,68,39,29.85,29.49,24,2,26,0.73
2012-2-29,57.4,42.9,29.8,23.0,18.3,13.1,60,38,20,29.89,29.71,19,1,19,1.86
2012-3-1,41.8,34.5,29.7,34.1,25.7,20.5,93,71,46,29.80,29.64,12,0,12,2.00
2012-3-2,38.4,29.1,23.1,26.8,19.7,8.8,93,71,33,30.06,29.79,16,0,17,48.00
2012-3-3,46.5,36.3,20.7,19.6,10.4,2.8,63,35,24,30.09,30.00,25,3,28,48.00
2012-3-4,61.9,48.6,34.3,22.7,17.6,9.9,57,32,13,30.19,30.00,20,1,20,48.00
2012-3-5,67.8,49.8,33.4,22.6,12.4,-3.3,60,29,6,30.17,29.84,16,1,18,48.00
2012-3-6,71.9,55.1,36.8,17.6,7.6,-10.8,42,18,4,29.84,29.42,20,3,22,48.00
2012-3-7,50.6,33.9,29.3,33.1,29.2,13.9,94,84,23,30.26,29.55,23,1,24,48.00
2012-3-8,50.6,36.8,26.1,28.8,18.3,6.9,89,51,18,30.54,30.26,10,0,11,48.00
2012-3-9,63.0,44.3,27.3,20.2,12.8,1.0,66,34,8,30.52,30.18,13,1,13,48.00
2012-3-10,67.8,49.9,32.7,40.5,23.6,12.8,80,39,17,30.18,29.82,21,4,24,48.00
2012-3-11,65.7,51.1,39.7,41.8,26.4,-0.6,94,50,10,29.83,29.61,16,1,16,46.00
2012-3-12,70.4,54.8,41.9,21.0,15.2,6.7,42,23,9,29.97,29.72,14,1,15,48.00
2012-3-13,74.9,54.8,39.2,21.1,11.4,-13.2,42,23,3,29.97,29.76,16,1,17,48.00
2012-3-14,74.9,54.0,39.0,17.3,6.0,-30.6,40,20,1,30.05,29.88,14,1,15,6.00
2012-3-15,74.0,55.2,41.5,23.3,17.7,12.2,39,25,10,30.18,30.00,13,1,15,0.00
2012-3-16,76.3,56.9,40.8,25.3,19.7,8.4,47,28,8,30.05,29.76,15,1,16,0.00
2012-3-17,75.8,57.7,40.5,24.7,12.2,-11.0,49,22,3,29.83,29.57,23,3,25,0.00
2012-3-18,71.0,56.4,45.2,31.0,17.8,6.4,41,23,10,29.62,29.30,36,5,38,0.00
2012-3-19,54.7,44.0,33.6,12.3,6.7,-4.0,37,22,9,29.67,29.41,24,1,24,0.00
2012-3-20,52.2,40.4,31.4,22.2,15.5,9.7,63,38,18,30.03,29.67,14,1,14,0.00
2012-3-21,63.6,45.4,28.2,22.5,18.6,15.6,61,37,18,30.05,29.95,16,0,17,0.00
2012-3-22,67.8,50.0,33.4,30.2,24.3,16.1,71,41,14,30.03,29.88,15,0,15,0.00
2012-3-23,78.3,57.6,38.4,31.7,22.1,7.0,68,34,7,30.05,29.92,15,2,15,0.00
2012-3-24,74.8,58.7,43.0,36.8,27.0,18.5,51,33,14,30.18,30.02,16,1,16,0.00
2012-3-25,79.2,58.2,43.7,41.1,38.0,21.7,78,51,14,30.18,29.90,15,1,19,0.00
2012-3-26,79.8,61.7,46.2,41.0,17.0,-28.1,80,32,1,29.93,29.52,30,4,36,0.01
2012-3-27,71.3,57.0,41.3,26.1,17.9,11.2,42,23,10,30.06,29.80,15,1,16,0.24
2012-3-28,80.0,59.6,41.1,29.0,20.4,0.9,60,28,5,30.06,29.81,14,1,15,0.24
2012-3-29,74.2,59.9,45.9,25.6,20.4,9.2,43,24,9,30.00,29.86,19,0,21,0.24
2012-3-30,78.5,62.4,45.8,27.7,22.0,12.6,44,24,8,29.97,29.84,11,1,12,0.24
2012-3-31,86.0,65.8,48.8,31.4,24.9,12.6,46,25,7,29.99,29.69,14,0,14,0.24
2012-4-1,86.3,67.9,47.3,27.8,10.8,-25.4,44,16,1,29.70,29.39,19,2,19,0.24
2012-4-2,65.9,45.7,35.9,34.9,30.0,4.7,94,58,9,30.22,29.47,26,3,28,0.24
2012-4-3,38.0,35.4,32.5,36.3,33.8,30.9,94,94,92,30.26,30.11,22,2,23,0.16
2012-4-4,65.3,48.0,36.7,45.4,39.4,35.1,94,75,39,30.12,29.85,11,0,11,0.00
2012-4-5,77.3,56.3,37.5,48.0,37.6,25.5,94,58,15,29.94,29.79,23,3,24,0.00
2012-4-6,78.2,61.6,47.5,47.5,16.8,-31.6,80,33,1,30.07,29.64,28,4,31,0.00
2012-4-7,65.5,51.1,36.2,22.9,18.9,7.2,46,30,13,30.33,30.07,26,2,26,0.00
2012-4-8,75.4,56.5,36.1,28.5,17.5,-4.0,71,29,4,30.33,30.19,12,1,13,0.00
2012-4-9,70.9,55.6,39.3,40.2,27.2,20.9,64,36,18,30.28,30.13,11,0,12,0.00
2012-4-10,80.0,60.5,41.1,44.4,36.9,12.9,86,50,9,30.21,30.00,15,0,16,0.00
2012-4-11,72.0,59.3,51.5,60.5,49.8,42.9,92,72,44,30.13,29.85,23,3,31,0.26
2012-4-12,68.0,55.7,46.5,49.2,41.9,25.0,93,65,20,29.89,29.66,14,2,18,0.26
2012-4-13,67.4,53.8,40.0,42.2,27.5,8.4,89,45,10,29.86,29.70,18,1,18,0.00
2012-4-14,66.8,49.8,40.2,41.8,34.0,23.8,94,59,21,29.74,29.44,26,1,28,0.23
2012-4-15,52.4,43.8,36.1,39.4,35.6,26.5,94,75,39,30.07,29.56,28,1,33,2.76
2012-4-16,64.3,48.0,34.5,38.1,30.1,20.2,93,58,20,30.20,30.05,9,1,12,0.12
2012-4-17,74.3,56.4,39.6,31.7,27.3,17.9,71,38,13,30.22,30.02,15,1,15,0.00
2012-4-18,78.0,59.9,42.8,39.2,32.6,24.8,80,41,16,30.16,29.85,17,1,17,0.00
2012-4-19,66.8,56.0,46.5,45.8,38.4,29.7,87,55,26,30.13,29.90,18,0,20,0.00
2012-4-20,73.8,57.0,42.0,42.2,36.1,28.8,90,53,21,30.23,30.08,16,1,18,0.00
2012-4-21,79.9,62.9,46.0,38.3,34.5,28.4,74,38,16,30.32,30.09,15,1,15,0.00
2012-4-22,79.5,62.6,45.6,42.3,36.0,22.6,82,43,13,30.36,30.23,12,0,12,0.00
2012-4-23,86.0,66.9,46.5,43.6,33.1,17.5,83,37,8,30.27,30.06,12,0,12,0.00
2012-4-24,87.0,69.0,52.6,39.5,30.7,0.4,58,30,4,30.06,29.91,22,1,23,0.00
2012-4-25,83.2,66.9,50.3,42.8,33.8,17.3,73,35,9,30.09,29.91,17,1,21,0.00
2012-4-26,83.3,68.5,58.2,55.1,42.7,30.3,88,43,17,30.08,29.70,31,1,31,0.06
2012-4-27,69.3,58.9,46.6,54.8,38.2,23.5,94,55,18,29.93,29.66,25,2,26,0.00
2012-4-28,67.8,53.4,37.8,33.3,27.8,14.9,78,41,14,30.03,29.89,19,2,21,0.00
2012-4-29,68.8,53.7,24.8,39.8,35.7,-16.5,87,54,15,30.08,29.26,13,0,15,0.04
2012-4-30,81.8,61.7,42.4,39.5,28.5,3.5,84,40,6,30.07,29.79,12,1,13,0.00
2012-5-1,80.7,64.9,51.8,39.5,30.5,17.5,53,31,10,29.86,29.70,12,1,14,0.01
2012-5-2,84.3,65.6,48.7,44.2,37.7,26.4,76,41,13,30.00,29.78,17,1,19,0.00
2012-5-3,87.0,70.0,51.2,46.1,37.3,25.6,75,37,12,30.04,29.82,25,3,27,0.00
2012-5-4,93.0,73.5,54.3,41.2,27.2,-21.6,56,25,2,29.98,29.82,14,1,15,0.00
2012-5-5,88.0,68.0,50.2,52.2,35.9,-0.1,78,40,4,30.17,29.82,25,2,28,0.19
2012-5-6,67.2,54.5,45.8,45.9,36.1,18.4,92,53,25,30.34,30.15,17,1,17,0.07
2012-5-7,50.2,46.9,43.2,46.2,44.6,41.6,94,92,84,30.38,30.24,8,0,10,0.27
2012-5-8,69.5,54.9,40.2,46.3,38.6,27.3,94,61,22,30.31,30.16,10,0,66,0.00
2012-5-9,82.3,63.4,43.8,43.0,30.6,12.2,86,41,8,30.22,29.97,10,0,11,0.00
2012-5-10,89.5,71.2,50.0,38.5,26.3,6.0,64,25,5,30.00,29.79,24,1,24,0.00
2012-5-11,61.9,49.2,41.4,43.0,36.7,29.2,94,65,39,30.36,30.00,25,2,25,0.08
2012-5-12,56.4,46.6,40.1,47.5,43.0,38.5,94,88,64,30.41,30.33,12,0,12,0.13
2012-5-13,64.7,50.6,1.1,49.3,44.4,-0.2,94,81,46,30.39,24.23,80,0,80,0.00
2012-5-14,80.8,60.5,42.2,45.0,30.2,-10.5,92,47,3,30.36,30.21,9,0,10,0.00
2012-5-15,85.5,66.2,45.6,38.4,27.6,9.8,68,29,7,30.33,30.15,10,0,13,0.00
2012-5-16,86.5,65.7,56.2,40.7,31.6,22.2,50,30,10,30.20,30.03,11,1,12,0.00
2012-5-17,85.5,76.1,65.2,40.7,32.9,21.3,40,22,10,29.95,29.82,9,0,10,0.00
2012-5-18,86.3,71.1,59.0,41.4,33.0,12.7,43,27,8,29.84,29.63,18,1,21,0.00
2012-5-19,63.8,53.9,47.8,51.5,47.5,39.2,94,80,42,30.25,29.83,12,0,12,0.24
2012-5-20,78.6,59.4,41.1,50.3,43.1,0.0,94,63,19,30.31,29.95,15,0,16,1.68
2012-5-21,91.0,73.4,54.1,49.9,37.1,18.1,78,35,8,30.28,30.08,10,0,10,0.00
2012-5-22,96.5,75.9,61.0,45.0,33.4,-11.3,52,28,2,30.09,29.67,12,0,12,0.00
2012-5-23,72.8,61.9,52.3,53.6,43.6,30.5,94,56,23,29.80,29.66,15,1,17,0.45
2012-5-24,74.9,59.6,47.9,51.0,38.4,23.8,94,54,16,29.92,29.67,17,1,18,10.80
2012-5-25,81.0,64.6,54.6,50.8,44.6,40.7,72,50,27,29.92,29.76,26,1,27,10.80
2012-5-26,92.2,67.2,57.0,55.7,47.5,-3.7,91,63,3,29.87,29.60,25,2,31,6.30
2012-6-6,73.9,69.5,66.0,60.2,58.2,52.4,78,68,48,30.06,29.95,19,2,20,0.91
2012-6-7,83.0,70.9,60.2,63.6,58.3,52.6,93,67,38,30.16,29.95,23,2,26,0.10
2012-6-8,94.9,78.4,61.6,60.1,45.6,22.8,86,42,8,30.16,29.74,20,1,21,0.00
2012-6-9,100.8,82.0,64.1,50.3,28.4,-17.7,50,21,1,29.79,29.53,18,1,19,0.04
2012-6-10,75.2,66.2,57.0,39.8,34.0,19.6,46,31,16,30.12,29.64,11,1,14,0.04
2012-6-11,83.8,68.3,51.3,38.3,31.0,0.0,54,27,12,30.30,24.85,13,0,127,2.88
2012-6-12,89.8,71.7,53.8,46.0,30.7,7.0,68,29,5,30.24,30.03,13,0,16,0.02
2012-6-13,96.7,76.1,54.7,40.9,29.3,-9.1,55,25,2,30.08,29.82,8,1,15,1.51
2012-6-14,90.7,75.3,60.5,49.1,39.6,28.9,52,30,12,30.08,29.86,14,1,15,0.00
2012-6-15,87.2,73.4,52.2,57.2,49.0,28.4,66,44,20,30.16,29.94,19,2,19,0.10
2012-6-16,78.4,66.7,60.4,52.0,48.3,43.1,65,52,36,30.34,30.08,22,1,26,1.30
2012-6-17,98.3,87.9,73.2,44.2,24.3,-19.4,30,14,1,30.00,29.78,20,2,22,0.01
2012-6-18,102.0,84.0,67.5,41.5,22.8,-18.3,32,16,1,29.85,29.63,14,1,14,0.00
2012-6-19,99.0,82.0,63.7,45.9,30.3,0.0,38,20,3,29.79,29.69,20,1,135,0.03
2012-6-20,80.8,70.5,58.6,54.0,45.7,2.1,83,44,20,30.33,24.83,64,2,127,6.40
2012-6-21,91.8,75.9,63.0,49.6,43.8,23.6,48,33,18,30.34,30.05,64,2,127,0.81
2012-6-22,100.7,81.5,60.5,56.7,40.0,13.8,79,32,5,30.07,29.76,16,2,16,48.93
2012-6-25,103.3,94.5,79.9,38.4,16.3,-4.1,23,7,2,30.08,29.89,19,4,21,32.62
2012-6-26,101.2,83.9,69.1,44.2,35.3,17.2,35,20,5,30.00,29.88,27,1,27,44.27
2012-7-4,94.9,87.2,77.0,51.7,38.8,24.7,40,21,8,30.04,29.96,15,0,15,23.30
2012-7-5,99.3,81.6,70.1,62.7,53.4,34.6,71,42,13,30.12,29.94,16,1,17,55.92
2012-7-6,88.6,73.1,0.7,99.9,56.5,-24.7,94,59,8,30.36,24.19,22,1,127,0.02
2012-7-7,83.8,68.9,63.1,66.4,62.7,56.5,94,83,42,30.44,30.28,22,0,23,55.92
2012-7-8,79.5,68.1,62.2,65.4,62.3,58.5,94,83,52,30.42,30.34,8,0,10,55.92
2012-7-9,82.9,70.0,63.2,67.4,62.6,56.3,94,80,42,30.42,30.32,9,0,10,53.59
2012-7-10,87.3,74.1,62.0,63.3,56.3,0.0,92,59,23,30.39,24.57,12,1,127,20.56
2012-7-11,88.3,75.9,61.6,61.4,54.7,48.1,89,52,26,30.28,30.16,6,0,9,0.00
2012-7-12,93.5,78.6,64.6,55.9,48.4,32.9,69,39,12,30.26,30.18,12,0,14,0.00
2012-7-13,98.3,80.5,64.1,55.9,44.7,20.0,72,34,7,30.29,30.18,10,0,10,0.00
2012-7-14,96.2,80.8,66.4,56.6,44.0,28.9,60,31,10,30.27,30.12,16,1,16,0.00
2012-7-15,97.5,79.6,67.0,56.2,47.9,26.9,62,37,9,30.18,30.03,16,1,19,0.00
2012-7-16,93.3,74.6,63.5,63.8,56.2,41.6,88,58,18,30.15,29.98,23,1,23,0.01
2012-7-17,90.3,75.1,61.1,62.3,53.4,41.5,91,53,20,30.15,30.02,16,0,16,0.00
2012-7-18,96.3,78.3,62.5,56.2,47.4,26.9,76,39,9,30.23,30.13,15,1,20,0.00
2012-7-19,96.4,80.1,65.1,57.2,48.8,34.6,72,37,12,30.29,30.18,13,1,13,0.00
2012-7-20,99.7,82.3,66.4,57.4,45.8,31.0,64,33,10,30.29,30.18,10,0,10,0.00
2012-7-21,100.3,82.1,65.1,57.4,46.2,25.6,67,33,8,30.32,30.13,10,0,11,0.00
2012-7-22,95.0,81.1,70.8,63.2,48.7,2.5,67,34,14,30.32,30.17,16,1,16,0.07
2012-7-23,97.5,79.2,65.3,63.7,52.2,34.6,82,46,12,30.28,30.10,17,1,18,1.68
2012-7-24,95.8,79.1,64.9,66.7,51.7,39.7,73,42,15,30.17,29.95,16,1,17,1.68
2012-7-25,89.8,76.2,67.8,61.8,55.1,46.8,78,51,25,30.20,30.04,19,1,19,1.68
2012-7-26,92.5,77.5,63.5,60.9,51.2,37.2,85,47,15,30.26,30.15,11,0,11,1.68
2012-7-27,92.5,75.0,64.4,66.2,54.3,45.3,76,52,22,30.32,30.17,18,1,18,1.68
2012-7-28,91.0,75.4,65.2,60.3,54.9,45.7,83,53,24,30.33,30.19,11,0,12,1.33
2012-7-29,92.6,80.5,70.0,61.5,52.6,40.5,71,43,17,30.31,30.18,21,2,22,0.91
2012-7-30,88.2,75.0,66.2,64.6,59.1,49.2,83,60,27,30.31,30.20,12,0,13,1.68
2012-7-31,91.8,76.6,20.3,73.5,58.6,9.8,87,56,23,30.31,30.15,15,2,129,0.02
2012-8-1,89.0,75.6,66.0,64.8,56.4,46.4,87,55,24,30.27,30.13,19,1,24,2.16
2012-8-2,89.2,73.6,61.7,61.5,52.7,42.7,89,54,22,30.20,30.05,19,0,19,2.16
2012-8-3,96.7,78.3,62.7,54.9,41.0,9.5,71,35,5,30.18,29.97,22,1,24,2.16
2012-8-4,85.3,72.1,60.9,51.5,45.4,23.6,64,41,20,30.35,30.18,25,1,25,2.16
2012-8-5,95.5,76.4,60.7,54.7,46.5,24.2,74,40,9,30.37,30.22,15,0,16,2.16
2012-8-6,94.8,80.1,68.9,55.8,43.3,21.2,53,30,8,30.36,30.24,16,1,17,2.16
2012-8-7,92.8,80.2,67.2,59.3,45.6,33.9,69,33,13,30.34,30.24,11,0,13,2.16
2012-8-8,93.7,77.2,60.9,56.1,42.9,16.5,81,38,6,30.38,30.27,12,0,13,2.16
2012-8-9,92.0,75.5,59.9,51.9,45.7,36.3,71,39,15,30.36,30.19,12,0,13,2.16
2012-8-10,94.7,78.1,64.3,56.8,47.9,33.4,72,38,12,30.31,30.09,10,0,12,2.16
2012-8-11,88.5,76.1,64.5,61.6,50.4,38.1,87,46,18,30.28,30.08,22,1,24,0.01
2012-8-12,86.4,72.3,58.5,60.8,47.2,32.8,88,50,16,30.36,30.24,10,0,10,1.40
2012-8-13,74.9,69.8,61.8,54.8,48.7,39.4,71,48,33,30.31,30.15,16,1,18,0.00
2012-8-14,92.8,74.7,57.6,55.9,44.4,21.0,86,45,8,30.16,29.94,12,0,13,0.00
2012-8-15,92.5,74.7,62.6,51.5,41.7,21.6,60,35,8,30.33,30.02,21,1,24,0.00
2012-8-16,79.3,67.4,57.6,53.3,49.1,45.0,77,54,30,30.36,30.20,16,1,16,0.00
2012-8-17,86.3,69.1,54.0,53.8,49.2,40.1,89,54,20,30.31,30.10,11,1,14,0.00
2012-8-18,82.0,70.6,59.2,55.5,44.6,33.8,82,44,18,30.31,30.15,11,0,11,0.00
2012-8-19,84.3,68.7,56.0,46.1,37.5,24.8,66,36,12,30.28,30.14,10,0,10,0.00
2012-8-20,81.7,68.9,56.7,51.4,44.3,32.3,79,44,19,30.18,30.10,15,0,16,0.00
2012-8-21,89.5,72.6,56.8,52.3,43.5,28.2,83,42,12,30.24,30.10,11,0,12,0.00
2012-8-22,87.0,72.7,51.2,63.8,50.2,5.2,85,48,19,30.13,24.79,16,0,127,0.00
2012-8-23,82.3,71.0,62.6,62.8,58.2,46.5,91,67,34,30.15,30.03,16,0,127,0.00
2012-8-24,87.8,72.1,61.4,60.7,53.2,38.9,90,57,21,30.03,29.93,15,0,15,0.00
2012-8-25,83.3,69.8,59.2,52.8,45.6,36.5,77,44,23,30.24,29.96,14,0,14,0.00
2012-8-26,92.8,75.0,56.5,56.6,40.2,11.3,88,42,5,30.27,30.13,11,0,11,0.00
2012-8-27,94.3,76.0,62.3,55.5,46.7,24.7,76,40,8,30.32,30.26,17,1,20,0.00
2012-8-28,96.5,77.1,63.2,54.1,46.5,33.9,59,38,12,30.32,30.20,12,0,12,0.00
2012-8-29,93.4,78.6,65.0,54.1,46.0,33.0,64,35,12,30.24,30.05,11,0,11,0.00
2012-8-30,93.5,76.7,65.5,51.7,41.8,28.9,54,31,10,30.21,30.06,24,1,24,0.00
2012-8-31,91.7,74.4,17.1,53.1,39.4,-11.3,71,36,10,30.23,24.74,18,2,127,0.33
2012-9-1,94.0,75.9,63.5,51.0,40.4,0.0,46,30,9,30.20,29.48,21,1,127,0.00
2012-9-2,89.8,79.7,65.9,65.1,46.7,33.6,78,36,14,30.23,30.11,13,0,13,0.01
2012-9-3,89.2,72.6,61.3,59.5,48.2,28.9,87,50,12,30.25,30.16,18,1,21,0.00
2012-9-4,88.9,73.6,0.7,51.0,35.9,-54.8,68,34,6,30.23,24.19,21,0,64,5.46
2012-9-5,86.5,69.8,9.7,47.1,31.8,-18.5,60,28,4,30.31,24.21,64,1,64,0.00
2012-9-6,89.8,73.2,58.2,44.5,33.1,-10.4,46,27,6,30.18,29.48,19,0,20,0.00
2012-9-7,73.3,64.9,58.4,49.9,43.0,0.0,68,47,24,30.46,30.15,23,2,26,0.00
2012-9-8,79.8,64.6,51.5,50.3,41.8,22.0,86,51,12,30.47,30.32,10,0,10,0.00
2012-9-9,89.3,68.6,50.4,41.5,31.9,8.1,65,33,5,30.39,30.13,16,1,18,0.00
2012-9-10,89.7,73.8,57.3,44.0,32.9,16.4,57,26,7,30.14,29.98,12,0,12,0.00
2012-9-11,85.3,74.5,64.1,61.4,48.5,33.8,91,47,16,30.15,29.96,14,1,16,0.00
2012-9-12,64.4,57.1,53.3,61.6,54.5,51.0,94,91,81,30.47,30.15,7,0,8,0.02
2012-9-13,72.1,59.4,51.9,54.3,47.4,33.0,94,71,24,30.57,30.46,8,0,10,0.02
2012-9-14,78.2,61.0,46.9,47.2,40.0,24.5,89,54,14,30.56,30.36,12,0,12,0.00
2012-9-15,84.9,64.5,47.9,45.8,37.3,10.9,87,48,6,30.36,30.16,8,0,9,0.00
2012-9-16,84.3,68.3,51.8,43.7,29.7,6.2,61,32,5,30.20,30.05,16,0,18,0.00
2012-9-17,69.0,60.0,51.9,47.1,42.3,31.2,81,54,26,30.28,30.20,12,1,13,0.00
2012-9-18,78.2,60.8,47.3,47.8,40.9,0.0,89,56,16,30.28,30.13,10,0,10,0.00
2012-9-19,80.2,64.2,49.9,46.3,37.5,24.5,78,44,13,30.28,30.16,11,0,12,0.00
2012-9-20,81.0,63.9,50.3,44.0,36.8,24.3,78,43,13,30.26,30.16,11,0,12,0.00
2012-9-21,77.9,62.4,49.0,47.4,39.8,28.3,83,49,16,30.31,30.19,9,0,9,0.00
2012-9-22,77.7,61.5,47.1,46.0,41.8,37.9,86,53,24,30.39,30.21,9,0,10,0.00
2012-9-23,84.7,67.3,50.2,45.1,35.6,11.6,78,40,7,30.26,30.13,15,0,16,0.00
2012-9-24,77.2,66.3,59.1,54.2,44.3,36.4,68,47,24,30.20,30.00,14,0,16,0.00
2012-9-25,71.3,59.4,51.7,55.3,50.1,43.7,94,73,39,30.13,30.03,15,1,15,0.01
2012-9-26,66.8,57.8,53.0,57.3,53.6,50.9,94,87,60,30.26,30.11,11,0,11,0.00
2012-9-27,65.0,55.2,47.6,54.2,50.8,46.0,94,86,62,30.29,30.20,16,0,21,0.00
2012-9-28,71.5,57.9,45.6,52.1,46.8,40.0,94,71,34,30.29,30.18,9,0,10,0.00
2012-9-29,76.0,60.6,47.9,51.7,45.4,33.2,94,64,22,30.23,30.13,13,0,14,0.00
2012-9-30,74.3,62.1,50.9,51.0,45.4,36.7,90,59,27,30.28,30.18,15,1,16,0.00
2012-10-1,68.4,59.4,50.7,52.7,45.3,39.0,92,62,35,30.42,30.23,14,0,15,0.00
2012-10-2,79.9,60.2,47.9,45.4,38.0,18.8,86,53,10,30.23,29.94,8,0,8,0.00
2012-10-3,80.6,59.3,42.9,41.8,33.5,16.2,75,46,9,30.43,29.89,23,2,28,0.00
2012-10-4,50.4,43.7,40.3,32.2,29.4,27.3,69,57,42,30.42,30.24,13,1,13,0.00
2012-10-5,41.4,37.8,33.2,36.9,34.4,30.5,94,87,70,30.34,30.17,11,1,12,0.00
2012-10-6,38.2,36.2,34.2,35.9,33.6,31.3,94,90,84,30.33,30.21,12,1,12,0.00
2012-10-7,53.2,41.0,29.6,33.4,26.8,17.2,94,63,25,30.27,30.06,9,0,10,0.00
2012-10-8,69.4,47.2,31.0,33.5,25.7,8.3,90,54,9,30.08,29.86,6,0,7,0.00
2012-10-9,56.2,46.2,37.9,40.4,35.3,20.5,86,67,25,30.26,29.90,13,1,14,0.00
2012-10-10,61.3,47.9,38.0,45.9,41.3,36.0,94,79,52,30.23,30.02,5,0,6,0.00
2012-10-11,64.8,52.4,42.3,43.4,39.5,37.1,92,65,39,30.30,30.03,12,1,13,0.00
2012-10-12,65.8,49.9,38.7,50.0,42.6,35.7,91,77,52,30.26,29.91,20,0,20,0.00
2012-10-13,55.6,48.0,40.2,50.9,44.7,38.6,94,89,60,30.20,29.90,18,0,18,0.00
2012-10-14,66.8,53.2,42.4,48.2,41.2,31.0,94,70,27,30.36,24.20,11,0,80,20.49
2012-10-15,74.8,57.3,42.1,41.3,33.2,17.1,84,49,12,30.24,29.95,16,1,17,0.48
2012-10-16,75.6,60.2,45.3,38.0,32.3,0.0,66,39,14,29.99,29.59,38,2,39,0.18
2012-10-17,56.4,51.7,45.0,33.8,13.7,-7.5,51,23,11,30.15,24.19,29,1,127,2.56
2012-10-18,62.4,47.2,32.8,25.3,19.6,13.5,63,36,16,30.16,30.05,20,1,22,0.00
2012-10-19,142.0,49.5,25.7,38.0,29.7,-18.3,66,49,20,30.14,29.50,7,0,135,0.02
2012-10-20,74.2,55.9,45.5,35.5,29.7,0.0,61,40,12,29.93,29.72,9,0,10,0.01
2012-10-21,69.0,55.1,42.8,40.0,30.6,22.8,74,42,19,29.97,29.78,13,0,14,0.00
2012-10-22,70.5,51.6,38.3,42.0,39.0,0.0,91,66,26,29.97,29.70,14,1,15,0.03
2012-10-23,75.3,55.6,38.9,40.8,28.7,0.0,89,49,7,29.97,29.65,16,1,127,0.53
2012-10-24,55.0,45.5,31.9,44.0,35.9,0.0,94,71,50,30.11,29.77,15,1,16,0.21
2012-10-25,41.7,34.7,30.9,36.7,31.9,6.5,94,90,77,30.29,24.75,8,0,8,0.36
2012-10-26,42.2,36.9,28.3,32.6,29.7,26.8,94,76,57,30.47,30.16,13,0,13,0.04
2012-10-27,49.9,36.7,27.4,33.1,28.5,23.4,94,76,36,30.18,30.08,11,0,12,0.00
2012-10-28,59.0,42.5,28.7,37.7,32.4,27.1,94,71,35,30.16,30.03,12,0,12,0.00
2012-10-29,65.5,49.8,38.7,40.4,36.3,30.4,85,64,29,30.18,30.08,9,0,10,0.02
2012-10-30,149.0,62.2,-34.4,99.9,41.5,-53.6,86,59,24,32.79,20.53,10,0,10,0.00
2012-10-31,149.0,149.0,149.0,0.0,0.0,0.0,0,0,100,0.00,40.00,0,0,0,0.00
2012-11-1,149.0,149.0,149.0,0.0,0.0,0.0,0,0,100,0.00,40.00,0,0,0,0.00
2012-11-3,149.0,52.1,39.9,36.8,34.1,-5.1,84,55,33,34.02,29.48,15,0,15,25.61
2012-11-4,91.8,47.6,35.7,59.0,31.2,0.0,87,58,26,30.39,30.17,7,0,21,3.37
2012-11-5,64.6,48.4,34.7,54.1,33.2,29.3,88,61,28,30.37,30.13,8,0,11,0.10
2012-11-6,64.7,50.1,38.3,35.7,33.5,30.4,79,56,28,30.31,30.17,8,0,10,0.03
2012-11-7,71.1,51.9,38.0,34.6,27.6,10.4,76,47,9,30.20,29.95,7,0,10,0.20
2012-11-8,58.2,47.1,38.0,35.7,30.2,24.4,85,54,32,30.02,29.82,13,0,14,7.92
2012-11-9,62.3,45.7,32.9,40.5,36.2,30.3,91,72,41,29.82,29.53,8,0,12,0.01
2012-11-10,50.8,38.8,24.7,37.8,31.3,22.7,94,78,43,29.84,29.41,15,2,21,0.17
2012-11-11,35.2,27.2,21.1,24.2,15.6,6.5,93,65,32,30.17,29.84,18,2,19,0.12
2012-11-12,47.5,32.2,18.2,29.7,19.1,7.4,86,62,28,30.28,29.52,6,0,88,0.10
2012-11-13,51.6,38.5,28.7,28.0,25.4,20.2,89,64,29,30.32,30.18,11,0,11,0.00
2012-11-14,53.8,37.5,26.6,37.1,27.3,23.8,90,70,38,30.28,30.09,9,0,9,0.01
2012-11-15,47.9,36.7,29.7,36.7,31.5,0.0,92,82,57,30.45,30.21,9,0,10,0.01
2012-11-16,55.6,39.2,25.7,39.2,31.4,24.0,94,76,44,30.33,30.08,8,0,9,0.01
2012-11-17,61.0,45.0,31.8,32.7,29.9,0.0,86,60,28,30.14,28.59,12,0,64,0.40
2012-11-18,60.2,44.4,31.5,32.2,28.0,23.7,85,57,25,30.13,29.97,9,0,9,10.08
2012-11-19,55.6,47.2,35.1,31.8,28.4,-7.7,77,50,30,30.27,29.50,8,0,128,4.62
2012-11-20,62.6,48.1,34.4,27.7,24.1,17.5,74,43,18,30.26,30.10,8,0,8,0.05
2012-11-21,66.6,47.7,32.8,26.3,21.6,11.3,72,42,12,30.11,29.89,8,0,9,0.00
2012-11-22,51.9,41.4,31.5,32.2,23.5,17.8,63,49,40,30.50,29.92,14,1,16,0.00
2012-11-23,49.0,35.2,24.3,24.8,21.1,7.3,82,58,35,30.51,30.22,7,0,7,3.85
2012-11-24,56.9,42.6,31.2,25.0,19.9,15.6,71,43,20,30.22,29.98,10,0,10,0.00
2012-11-25,37.1,37.0,36.9,24.9,24.9,24.8,61,61,61,29.99,29.99,0,0,0,0.02
2012-11-26,36.6,31.7,24.8,31.1,27.2,0.0,94,84,66,30.37,30.00,12,0,13,0.08
2012-11-27,49.6,26.6,22.2,22.6,20.6,13.0,94,81,23,30.22,30.12,8,0,10,0.93
2012-11-28,51.2,43.2,33.3,23.3,19.8,14.4,60,41,27,30.11,30.08,6,0,6,0.00
2012-11-29,61.9,44.1,31.6,25.9,20.9,0.0,58,41,22,30.13,28.82,9,0,9,6.60
2012-11-30,60.4,43.4,32.9,28.6,25.2,21.0,70,52,23,30.09,29.85,9,0,9,5.08
2012-12-1,65.0,50.6,37.1,30.4,26.3,21.6,65,41,19,30.04,29.84,18,1,22,0.01
2012-12-2,63.9,48.3,33.5,25.4,20.8,15.4,63,37,16,30.02,29.66,15,0,15,0.03
2012-12-3,58.4,48.6,34.6,28.7,19.4,11.6,51,32,19,30.21,29.68,27,1,28,0.01
2012-12-4,50.8,38.7,27.5,22.3,19.3,14.8,74,48,24,30.35,30.17,7,0,8,0.00
2012-12-5,67.9,53.0,40.5,30.9,26.2,11.7,59,38,17,30.18,29.85,20,1,22,1.34
2012-12-6,53.6,46.6,35.3,36.1,31.9,27.2,83,58,36,30.07,29.87,12,0,12,32.16
2012-12-7,41.3,32.3,30.1,30.7,28.9,25.9,90,87,54,29.89,29.79,7,0,7,0.00
2012-12-8,51.4,40.0,29.3,27.5,23.0,14.2,88,55,24,29.89,29.59,19,2,19,0.00
2012-12-9,29.6,23.5,13.7,26.1,12.7,4.1,88,65,42,30.19,29.88,18,1,19,0.01
2012-12-10,36.7,24.1,10.8,22.9,7.7,2.3,91,52,28,30.00,29.81,19,1,22,0.00
2012-12-11,38.9,29.4,16.2,23.0,17.4,14.0,93,63,36,29.99,29.77,13,0,14,0.00
2012-12-12,139.9,31.8,23.1,20.7,17.7,0.0,75,58,24,29.90,29.59,17,1,131,1.32
2012-12-13,51.0,29.9,23.4,22.5,18.9,12.6,79,66,22,30.02,29.88,11,0,11,0.01
2012-12-14,41.5,32.5,26.8,21.8,19.6,17.2,78,60,37,29.88,29.48,9,0,9,6.96
2012-12-15,43.5,31.2,25.2,28.5,23.2,20.2,92,73,43,29.73,29.61,11,0,12,0.02
2012-12-16,41.7,29.7,24.3,28.9,23.0,7.8,94,80,31,29.81,29.63,21,0,22,0.54
2012-12-17,47.6,35.2,23.6,19.8,15.9,11.1,64,46,30,29.78,29.57,19,0,19,0.01
2012-12-18,43.2,34.9,24.7,29.9,23.6,13.4,90,65,40,29.78,29.58,16,1,18,0.00
2012-12-19,24.7,18.6,9.0,21.8,15.3,5.6,94,87,69,30.12,29.64,22,2,24,0.00
2012-12-20,43.2,25.3,7.3,15.9,10.3,3.7,87,57,27,30.23,30.11,12,1,13,1.18
2012-12-21,46.1,28.8,21.8,20.8,12.7,-26.5,72,52,26,30.21,30.05,9,0,10,0.95
2012-12-22,47.6,31.2,22.1,20.5,13.7,9.9,70,51,22,30.06,29.89,9,0,9,0.00
2012-12-23,49.7,34.3,23.3,20.1,13.9,5.8,64,45,23,29.96,29.84,23,1,23,0.00
2012-12-24,35.1,26.6,18.1,23.7,19.1,16.5,94,74,49,29.91,29.68,13,1,14,0.00
2012-12-25,18.7,13.3,7.5,16.4,9.2,4.6,94,84,69,30.20,29.91,12,0,12,0.00
2012-12-26,25.0,14.8,6.5,17.5,10.9,-33.3,90,84,71,29.99,24.53,10,0,129,0.77
2012-12-27,31.3,18.9,9.6,22.8,14.7,7.0,90,84,68,29.87,29.61,14,1,14,0.48
2012-12-28,30.7,19.8,9.5,18.3,9.1,3.8,90,66,37,30.11,29.85,19,0,20,7.19
2012-12-29,33.9,19.0,9.8,12.0,6.8,-0.1,82,60,33,30.14,29.89,9,0,9,0.00
2012-12-30,38.9,21.2,11.1,17.3,12.1,5.7,85,69,31,30.01,29.84,15,1,16,0.01
2012-12-31,25.5,20.4,15.7,18.2,16.0,13.1,90,83,71,30.02,29.92,8,0,9,0.01
2013-1-1,29.3,18.9,11.1,18.0,11.4,8.5,90,74,45,30.15,30.00,9,0,10,0.00